GW7057 Weather Reports


time (UTC)temp
C
wind
direction
speed
KPH
gust
KPH
rain 1hr
cm
rain 24hr
cm
rain mn
cm
humidity
%
barometer
mb
20260502210129 12 175 0.0 3.2 0.00 0.33 0.33 71 1007.3
20260502205626 12 256 1.6 4.8 0.00 0.33 0.33 71 1007.3
20260502205123 12 210 0.0 3.2 0.00 0.33 0.33 76 1007.2
20260502204620 12 26 3.2 3.2 0.00 0.33 0.33 76 1007.3
20260502204117 11 201 3.2 4.8 0.00 0.33 0.33 77 1007.4
20260502203614 11 6 1.6 6.4 0.00 0.33 0.33 77 1007.2
20260502203112 11 37 3.2 6.4 0.00 0.33 0.33 82 1007.3
20260502202607 11 348 4.8 9.7 0.00 0.33 0.33 84 1007.6
20260502202105 10 21 4.8 4.8 0.00 0.33 0.33 87 1007.5
20260502201601 10 4 1.6 9.7 0.00 0.33 0.33 87 1007.5
20260502201058 10 255 6.4 8.0 0.00 0.33 0.33 87 1007.7
20260502200554 10 222 6.4 6.4 0.00 0.33 0.33 86 1007.8
20260502200052 10 229 4.8 6.4 0.00 0.33 0.33 92 1007.7
20260502195549 10 182 3.2 8.0 0.00 0.33 0.33 92 1007.6
20260502195045 9 206 1.6 8.0 0.00 0.33 0.33 93 1007.8
20260502194542 9 249 3.2 4.8 0.00 0.33 0.33 93 1007.7
20260502194038 9 255 3.2 4.8 0.00 0.33 0.33 94 1007.7
20260502193535 8 92 4.8 4.8 0.05 0.33 0.33 94 1007.8
20260502193032 8 346 0.0 6.4 0.23 0.33 0.33 93 1008.0
20260502192528 8 211 1.6 3.2 0.43 0.30 0.30 93 1008.0
20260502192026 8 260 4.8 4.8 0.66 0.28 0.28 92 1008.1
20260502191522 8 332 3.2 8.0 0.48 0.23 0.23 90 1008.0
20260502191020 8 217 1.6 4.8 0.05 0.15 0.15 89 1008.1
20260502190517 8 353 1.6 3.2 0.05 0.15 0.15 87 1007.9
20260502190014 8 44 0.0 4.8 0.13 0.13 0.13 86 1008.0
20260502185509 9 356 3.2 6.4 0.13 0.13 0.13 84 1008.1
20260502185006 10 1 4.8 6.4 0.00 0.10 0.10 79 1008.0
20260502184501 10 220 0.0 4.8 0.00 0.10 0.10 77 1007.9
20260502183958 11 42 3.2 3.2 0.00 0.10 0.10 76 1007.7
20260502183455 11 192 1.6 4.8 0.00 0.10 0.10 73 1007.6
20260502182949 11 178 3.2 11.3 0.00 0.10 0.10 72 1007.9
20260502182445 12 128 3.2 9.7 0.00 0.10 0.10 69 1007.5
20260502181942 12 333 1.6 9.7 0.00 0.10 0.10 69 1007.7
20260502181440 12 218 4.8 4.8 0.00 0.10 0.10 71 1007.9
20260502180938 12 121 4.8 8.0 0.00 0.10 0.10 69 1007.9
20260502180435 12 188 8.0 8.0 0.00 0.10 0.10 69 1007.6
20260502170354 11 131 3.2 9.7 0.00 0.10 0.10 70 1008.1
20260502164341 11 159 4.8 8.0 0.00 0.10 0.10 75 1008.3
20260502163837 11 82 4.8 8.0 0.00 0.10 0.10 76 1008.3
20260502163333 11 163 0.0 12.9 0.00 0.10 0.10 77 1008.2
20260502162831 11 126 3.2 4.8 0.00 0.10 0.10 80 1008.3
20260502162328 10 150 6.4 8.0 0.00 0.10 0.10 82 1008.5
20260502161825 10 137 3.2 8.0 0.00 0.10 0.10 80 1008.4
20260502161321 10 117 4.8 9.7 0.00 0.10 0.10 82 1008.4
20260502160819 10 157 4.8 9.7 0.00 0.10 0.10 82 1008.7
20260502160318 10 139 3.2 4.8 0.00 0.10 0.10 85 1008.6
20260502152247 10 144 4.8 9.7 0.00 0.10 0.10 84 1009.1
20260502151744 9 133 3.2 8.0 0.00 0.10 0.10 84 1009.0
20260502151241 10 108 6.4 9.7 0.00 0.10 0.10 85 1009.1
20260502150739 10 114 4.8 6.4 0.00 0.10 0.10 85 1009.0
20260502150235 10 94 3.2 4.8 0.00 0.10 0.10 85 1009.0
20260502130624 9 53 0.0 4.8 0.00 0.10 0.10 92 1009.0
20260502130122 8 140 1.6 3.2 0.00 0.10 0.10 94 1009.0
20260502123607 7 107 6.4 8.0 0.05 0.10 0.10 94 1009.8
20260502123103 7 100 4.8 4.8 0.00 0.10 0.10 94 1009.8
20260502122600 7 103 1.6 3.2 0.00 0.10 0.10 94 1009.8
20260502122057 7 102 4.8 4.8 0.05 0.10 0.10 94 1009.7
20260502121555 7 122 3.2 4.8 0.05 0.10 0.10 94 1009.9
20260502121052 7 122 0.0 3.2 0.05 0.10 0.10 94 1009.7
20260502120548 7 105 1.6 3.2 0.05 0.10 0.10 95 1009.7
20260502115544 7 145 1.6 6.4 0.13 0.08 0.08 95 1010.0
20260502115039 7 181 3.2 4.8 0.13 0.08 0.08 94 1009.7
20260502114536 7 132 0.0 1.6 0.00 0.05 0.05 94 1009.7
20260502114032 7 313 0.0 3.2 0.00 0.05 0.05 94 1009.6
20260502113530 7 167 0.0 1.6 0.00 0.05 0.05 95 1009.6
20260502113029 7 242 0.0 3.2 0.00 0.05 0.05 94 1009.5
20260502112526 7 291 1.6 3.2 0.00 0.05 0.05 94 1009.5
20260502112023 7 224 0.0 3.2 0.00 0.05 0.05 94 1009.4
20260502111521 7 25 0.0 1.6 0.00 0.05 0.05 94 1009.1
20260502111018 7 80 3.2 3.2 0.00 0.05 0.05 95 1008.8
20260502110515 7 83 1.6 3.2 0.00 0.05 0.05 94 1008.9
20260502110013 7 93 3.2 4.8 0.00 0.05 0.05 94 1008.9
20260502105510 7 91 3.2 3.2 0.00 0.05 0.05 94 1009.0
20260502105008 7 49 3.2 3.2 0.05 0.05 0.05 94 1009.2
20260502104504 7 283 0.0 3.2 0.05 0.05 0.05 93 1009.2
20260502104002 7 158 0.0 1.6 0.05 0.05 0.05 93 1009.3
20260502103459 7 58 0.0 1.6 0.00 0.03 0.03 93 1009.0
20260502102956 7 88 0.0 3.2 0.00 0.03 0.03 93 1009.0
20260502102453 7 116 1.6 1.6 0.05 0.03 0.03 93 1008.8
20260502101950 7 73 0.0 1.6 0.05 0.03 0.03 93 1008.8
20260502101448 7 97 3.2 3.2 0.00 0.03 0.03 93 1008.8
20260502100946 7 140 0.0 3.2 0.00 0.03 0.03 93 1009.0
20260502100445 7 135 0.0 3.2 0.00 0.03 0.03 93 1008.8
20260502091420 7 110 1.6 3.2 0.00 0.00 0.00 91 1008.5
20260502090916 7 93 3.2 3.2 0.00 0.00 0.00 91 1008.3
20260502090414 7 86 3.2 3.2 0.00 0.00 0.00 91 1008.3
20260502071308 7 86 3.2 4.8 0.00 0.00 0.00 79 1008.4
20260502070807 7 89 3.2 3.2 0.00 0.00 0.00 78 1008.5
20260502070304 7 87 3.2 3.2 0.00 0.00 0.00 78 1008.4
20260502065802 7 98 1.6 3.2 0.00 0.00 0.00 78 1008.6
20260502065300 8 86 3.2 6.4 0.00 0.00 0.00 77 1008.3
20260502064758 8 102 6.4 6.4 0.00 0.00 0.00 78 1008.7
20260502064255 8 123 4.8 4.8 0.00 0.00 0.00 78 1008.6
20260502063753 8 107 1.6 3.2 0.00 0.00 0.00 77 1008.6
20260502063251 8 85 1.6 3.2 0.00 0.00 0.00 76 1008.6
20260502062747 8 78 1.6 3.2 0.00 0.00 0.00 75 1008.5
20260502062245 8 39 1.6 3.2 0.00 0.00 0.00 75 1009.0
20260502061743 8 107 1.6 3.2 0.00 0.00 0.00 75 1009.0
20260502061241 8 93 3.2 3.2 0.00 0.00 0.00 75 1008.9
20260502060736 8 106 0.0 3.2 0.00 0.00 0.00 74 1009.1
20260502060232 8 107 6.4 6.4 0.00 0.00 0.00 73 1009.1
20260502055730 8 94 3.2 3.2 0.00 0.00 0.00 73 1008.8
20260502055227 8 96 3.2 3.2 0.00 0.00 0.00 72 1008.8
20260502054726 8 58 0.0 4.8 0.00 0.00 0.00 70 1009.0
20260502054224 8 216 0.0 3.2 0.00 0.00 0.00 69 1009.1
20260502053721 8 86 3.2 3.2 0.00 0.00 0.00 68 1009.0
20260502053218 9 115 3.2 3.2 0.00 0.00 0.00 68 1008.8
20260502052716 9 138 3.2 4.8 0.00 0.00 0.00 67 1009.0
20260502052214 9 109 3.2 3.2 0.00 0.00 0.00 67 1009.0
20260502051712 9 111 4.8 4.8 0.00 0.00 0.00 67 1009.1
20260502051210 9 117 3.2 4.8 0.00 0.00 0.00 66 1009.0
20260502050706 9 117 3.2 4.8 0.00 0.00 0.00 65 1009.0
20260502050202 9 103 3.2 4.8 0.00 0.00 0.00 65 1009.1
20260502045659 9 120 3.2 8.0 0.00 0.00 0.00 65 1008.8
20260502045156 9 130 4.8 6.4 0.00 0.00 0.00 64 1009.0
20260502044653 9 108 3.2 4.8 0.00 0.00 0.00 64 1009.0
20260502044149 9 120 3.2 4.8 0.00 0.00 0.00 64 1008.8
20260502043647 9 104 4.8 8.0 0.00 0.00 0.00 63 1008.8
20260502043144 9 99 3.2 4.8 0.00 0.00 0.00 62 1009.0
20260502042643 10 103 3.2 6.4 0.00 0.00 0.00 61 1009.0
20260502042141 10 100 3.2 3.2 0.00 0.00 0.00 61 1009.0
20260502041638 10 92 1.6 3.2 0.00 0.00 0.00 61 1009.0
20260502041135 10 155 1.6 4.8 0.00 0.00 0.00 61 1009.1
20260502040632 10 125 3.2 6.4 0.00 0.00 0.00 60 1009.0
20260502040129 10 114 1.6 3.2 0.00 0.00 0.00 60 1008.9
20260502035625 10 114 3.2 4.8 0.00 0.00 0.00 59 1009.2
20260502035122 10 102 1.6 3.2 0.00 0.00 0.00 59 1009.2
20260502034620 10 89 3.2 3.2 0.00 0.00 0.00 59 1009.1
20260502034119 10 112 0.0 1.6 0.00 0.00 0.00 58 1009.3
20260502033616 10 96 1.6 3.2 0.00 0.00 0.00 57 1009.3
20260502033114 10 112 4.8 4.8 0.00 0.00 0.00 57 1009.2
20260502032614 11 121 3.2 6.4 0.00 0.00 0.00 56 1009.0
20260502032111 11 136 6.4 6.4 0.00 0.00 0.00 55 1009.2
20260502031609 11 144 3.2 6.4 0.00 0.00 0.00 55 1009.2
20260502031107 11 139 3.2 3.2 0.00 0.00 0.00 56 1009.1
20260502030606 11 183 3.2 6.4 0.00 0.00 0.00 54 1009.2
20260502025600 11 201 3.2 6.4 0.00 0.00 0.00 53 1009.0
20260502025058 11 220 1.6 6.4 0.00 0.00 0.00 52 1009.2
20260502024555 11 221 3.2 4.8 0.00 0.00 0.00 51 1008.9
20260502024053 11 228 3.2 4.8 0.00 0.00 0.00 50 1009.1
20260502023551 11 116 0.0 3.2 0.00 0.00 0.00 50 1009.0
20260502023048 11 219 1.6 3.2 0.00 0.00 0.00 48 1009.2
20260502022544 11 207 3.2 6.4 0.00 0.00 0.00 47 1009.0
20260502022042 11 195 3.2 3.2 0.00 0.00 0.00 49 1009.1
20260502021539 11 205 1.6 6.4 0.00 0.00 0.00 48 1009.0
20260502021036 11 217 6.4 6.4 0.00 0.00 0.00 47 1009.1
20260502020534 11 231 4.8 8.0 0.00 0.00 0.00 47 1009.0
20260502020031 11 202 4.8 9.7 0.00 0.00 0.00 49 1009.3
20260502015529 10 207 4.8 6.4 0.00 0.00 0.00 50 1009.1
20260502015024 10 185 3.2 11.3 0.00 0.00 0.00 56 1009.1
20260502014522 9 178 6.4 6.4 0.00 0.00 0.00 60 1009.0
20260502014019 9 213 1.6 3.2 0.00 0.00 0.00 62 1009.0
20260502013514 9 209 3.2 3.2 0.00 0.00 0.00 61 1009.0
20260502013010 9 124 0.0 0.0 0.00 0.00 0.00 62 1008.8
20260502012508 9 147 0.0 0.0 0.00 0.00 0.00 56 1008.7
20260502012006 9 150 0.0 1.6 0.00 0.00 0.00 57 1008.9
20260502011502 9 135 0.0 0.0 0.00 0.00 0.00 56 1008.8
20260502010959 10 103 0.0 1.6 0.00 0.00 0.00 50 1008.7
20260502010455 10 89 1.6 1.6 0.00 0.00 0.00 51 1008.5
20260502005951 10 83 1.6 3.2 0.00 0.00 0.00 54 1008.4
20260502005449 10 124 0.0 1.6 0.00 0.00 0.00 54 1008.4
20260502004948 10 215 0.0 1.6 0.00 0.00 0.00 53 1008.5
20260502004443 10 202 1.6 3.2 0.00 0.00 0.00 49 1008.1
20260502003940 10 147 0.0 1.6 0.00 0.00 0.00 48 1008.4
20260502003438 11 218 0.0 1.6 0.00 0.00 0.00 49 1008.3
20260502002933 11 179 1.6 3.2 0.00 0.00 0.00 46 1008.2
20260502002431 11 157 0.0 0.0 0.00 0.00 0.00 43 1008.2
20260502001928 11 110 0.0 0.0 0.00 0.00 0.00 41 1007.9
20260502001426 11 89 0.0 0.0 0.00 0.00 0.00 40 1007.9
20260502000923 11 89 0.0 0.0 0.00 0.00 0.00 41 1007.7
20260502000424 11 89 0.0 0.0 0.00 0.00 0.00 40 1007.8
20260501235917 11 336 0.0 1.6 0.00 0.00 0.00 38 1007.6
20260501235413 11 84 1.6 1.6 0.00 0.00 0.00 40 1007.8
20260501234908 12 102 1.6 1.6 0.00 0.00 0.00 40 1007.6
20260501234405 12 51 0.0 1.6 0.00 0.00 0.00 40 1007.5
20260501233904 12 103 0.0 1.6 0.00 0.00 0.00 38 1007.6
20260501233401 13 55 0.0 0.0 0.00 0.00 0.00 38 1007.5
20260501232856 13 89 0.0 1.6 0.00 0.00 0.00 38 1007.5
20260501232354 13 136 0.0 1.6 0.00 0.00 0.00 36 1007.5
20260501231851 13 226 1.6 3.2 0.00 0.00 0.00 35 1007.2
20260501231349 14 230 0.0 3.2 0.00 0.00 0.00 35 1007.0
20260501230847 14 279 3.2 4.8 0.00 0.00 0.00 32 1007.0
20260501230346 14 143 0.0 4.8 0.00 0.00 0.00 33 1007.0
20260501225843 15 13 1.6 3.2 0.00 0.00 0.00 33 1006.8
20260501225341 15 358 3.2 8.0 0.00 0.00 0.00 32 1006.8
20260501224837 16 40 1.6 8.0 0.00 0.00 0.00 31 1006.9
20260501224335 16 244 4.8 6.4 0.00 0.00 0.00 31 1006.8
20260501223831 16 279 3.2 8.0 0.00 0.00 0.00 29 1006.9
20260501223326 16 252 0.0 1.6 0.00 0.00 0.00 30 1007.0
20260501222822 16 218 9.7 14.5 0.00 0.00 0.00 28 1006.8
20260501222320 16 210 14.5 17.7 0.00 0.00 0.00 28 1006.9
20260501221817 16 269 0.0 3.2 0.00 0.00 0.00 33 1006.8
20260501221314 16 232 6.4 8.0 0.00 0.00 0.00 29 1007.0
20260501220812 16 226 0.0 6.4 0.00 0.00 0.00 29 1006.9
20260501220309 16 91 4.8 8.0 0.00 0.00 0.00 30 1006.9
20260501215806 16 216 8.0 11.3 0.00 0.00 0.00 30 1006.9
20260501215305 16 206 6.4 11.3 0.00 0.00 0.00 32 1006.9
20260501214756 16 223 4.8 14.5 0.00 0.00 0.00 32 1006.7
20260501214253 16 202 8.0 9.7 0.00 0.00 0.00 29 1006.8
20260501213749 16 235 9.7 9.7 0.00 0.00 0.00 29 1006.7
20260501213245 16 149 4.8 8.0 0.00 0.00 0.00 29 1006.7
20260501212742 16 329 9.7 11.3 0.00 0.00 0.00 28 1006.8
20260501212238 17 153 4.8 9.7 0.00 0.00 0.00 28 1006.8
20260501211735 17 243 3.2 6.4 0.00 0.00 0.00 32 1006.8
20260501211232 17 204 8.0 8.0 0.00 0.00 0.00 29 1006.7
20260501210729 17 266 1.6 6.4 0.00 0.00 0.00 30 1006.6